This is the latest recevied weather packets stored in our database for station/object KE8GJZ-2. If no packets are shown the sender has not sent any weather packets the latest 10 day(s).
| Time | Temp. | Humidity | Pressure | Rain* | Wind** | Luminosity | Snow |
|---|---|---|---|---|---|---|---|
| 1778188996 | 13.33° C | 48% | 1010.4 hPa | 0 mm | - | 132 W/m² | - |
| 1778188693 | 12.78° C | 49% | 1010.4 hPa | 0 mm | - | 203 W/m² | - |
| 1778188390 | 12.78° C | 51% | 1010.4 hPa | 0 mm | - | 184 W/m² | - |
| 1778188087 | 13.33° C | 46% | 1010.5 hPa | 0 mm | - | 250 W/m² | - |
| 1778187783 | 13.33° C | 46% | 1010.5 hPa | 0 mm | - | 293 W/m² | - |
| 1778187480 | 13.33° C | 49% | 1010.9 hPa | 0 mm | - | 536 W/m² | - |
| 1778187177 | 13.33° C | 48% | 1010.7 hPa | 0 mm | - | 481 W/m² | - |
| 1778186873 | 12.22° C | 47% | 1010.8 hPa | 0 mm | - | 508 W/m² | - |
| 1778186571 | 12.22° C | 47% | 1011 hPa | 0 mm | - | 325 W/m² | - |
| 1778186268 | 12.22° C | 48% | 1011 hPa | 0 mm | - | 417 W/m² | - |
| 1778185966 | 12.22° C | 50% | 1011.3 hPa | 0 mm | - | 152 W/m² | - |
| 1778185662 | 12.22° C | 46% | 1011.2 hPa | 0 mm | - | 567 W/m² | - |
| 1778185358 | 12.22° C | 48% | 1011.4 hPa | 0 mm | - | 284 W/m² | - |
| 1778185053 | 12.22° C | 49% | 1011.5 hPa | 0 mm | - | 367 W/m² | - |
| 1778184750 | 11.67° C | 49% | 1011.6 hPa | 0 mm | - | 375 W/m² | - |
| 1778184446 | 11.67° C | 49% | 1011.6 hPa | 0 mm | - | 336 W/m² | - |
| 1778184142 | 11.67° C | 48% | 1011.5 hPa | 0 mm | - | 360 W/m² | - |
| 1778183839 | 11.67° C | 49% | 1011.9 hPa | 0 mm | - | 238 W/m² | - |
| 1778183536 | 11.67° C | 51% | 1012.1 hPa | 0 mm | - | 247 W/m² | - |
| 1778183233 | 12.22° C | 48% | 1012 hPa | 0 mm | - | 310 W/m² | - |
| 1778182929 | 11.67° C | 52% | 1011.9 hPa | 0 mm | - | 622 W/m² | - |
| 1778182626 | 11.67° C | 49% | 1012.3 hPa | 0 mm | - | 648 W/m² | - |
| 1778182323 | 11.67° C | 48% | 1012.2 hPa | 0 mm | - | 583 W/m² | - |
| 1778182018 | 11.67° C | 50% | 1012.3 hPa | 0 mm | - | 436 W/m² | - |
| 1778181716 | 11.67° C | 51% | 1012.5 hPa | 0 mm | - | 416 W/m² | - |
* Rain latest hour (hover to see other rain measurements)
** Current wind speed in m/s (hover to see current wind gust speed)